Location: Grand Rapids
(42.9630°N, 85.6680°W)
Time: 02:47:11
(UTC-04:00)

S-56A Canister/Altair - Pass Details

Date: 06 June 2024
Orbit: 637 x 2489 km, 38.9° (Epoch: 21 June)

Event Time Altitude Azimuth Distance (km) Brightness Sun altitude
Rises 06:42:23 0° 272° (W) 6,147 11.6 5.2°
Reaches altitude 10° 06:46:26 10° 271° (W) 5,150 11.2 5.9°
Maximum altitude 07:01:19 71° 192° (SSW) 2,328 10.0 8.4°
Drops below altitude 10° 07:12:49 10° 111° (ESE) 4,086 12.1 10.3°
Sets 07:15:39 0° 109° (ESE) 4,856 12.5 10.8°
